Regional Weather Roundup
Issued by NWS

Home | Current Version | Previous Version | Text Only | Print | Product List | Glossary On
Versions: 1 2 3 4 5 6 7 8 9 10 11 12 13 14 15 16 17 18 19 20 21 22 23 24 25 26 27 28 29 30 31 32 33 34 35 36 37 38 39 40 41 42 43 44 45 46 47 48 49 50
000
ASUS42 KFFC 070103
RWRGA
WEATHER ROUNDUP FOR GEORGIA
NATIONAL WEATHER SERVICE PEACHTREE CITY GA
900 PM EDT FRI MAY 06 2016

NOTE: "FAIR" INDICATES FEW OR NO CLOUDS BELOW 12,000 FEET WITH NO
SIGNIFICANT WEATHER AND/OR OBSTRUCTIONS TO VISIBILITY.

* = USE WITH CAUTION. THE STATIONS MARKED WITH AN ASTERISK MAY NOT
REPORT WEATHER SUCH AS PRECIPITATION, FOG, OR THUNDER AND ARE NOT
QUALITY CONTROLLED BY NWS.

THE REMARK "TC" DENOTES TEMPERATURE READING IN DEGREES CELSIUS.

GAZ001>058-070200-
NORTH GEORGIA

CITY           SKY/WX    TMP DP  RH WIND       PRES   REMARKS
ATLANTA        PTCLDY    64  40  41 NW7       29.92R
ATHENS         PTCLDY    62  39  42 CALM      29.89R
CHAMBLEE       CLEAR     64  41  42 NW12      29.92R
PEACHTREE CITY CLEAR     58  45  62 CALM      29.93R
ROME           CLEAR     64  41  42 NW5       29.93R
WEST ATLANTA   CLEAR     63  40  42 NW3       29.92R
GAINESVILLE    CLEAR     62  39  42 NW8       29.93R
CARTERSVILLE   CLOUDY    62  45  53 CALM      29.94R


CITY           SKY/WX    TMP DP  RH WIND       PRES   REMARKS
DALTON*        MOCLDY    63  46  55 CALM      29.93R
LAWRENCEVILLE* PTCLDY    63  41  45 CALM      29.92R
KENNESAW*      PTCLDY    63  39  42 NW5       29.92R
CANTON*        CLEAR     61  34  36 NW5       29.94R
BLAIRSVILLE*     N/A    N/A N/A N/A MISG      29.94R
$$

GAZ059>098-102>109-070200-
CENTRAL GEORGIA

CITY           SKY/WX    TMP DP  RH WIND       PRES   REMARKS
AUGUSTA-BUSH   PTCLDY    59  49  69 CALM      29.86R
AUGUSTA-DANIEL CLEAR     66  44  45 W3        29.87R
COLUMBUS       CLEAR     66  42  41 NW6       29.92S
MACON          CLEAR     60  46  59 W6        29.90R
ROBINS AFB     CLEAR     61  47  59 N2        29.90R


CITY           SKY/WX    TMP DP  RH WIND       PRES   REMARKS
LAGRANGE*      CLEAR     59  50  72 CALM      29.94R
SYLVANIA*      MOCLDY    62  56  80 CALM      29.87R
MILLEDGEVILLE* CLEAR     59  48  67 CALM      29.89R
$$

GAZ099>101-110>166-070200-
SOUTH GEORGIA

CITY           SKY/WX    TMP DP  RH WIND       PRES   REMARKS
SAVANNAH       TSTM      62  51  67 NW15G31   29.88R
VALDOSTA       PTCLDY    61  49  64 CALM      29.90R
ALMA           CLEAR     59  47  64 CALM      29.89R
ST SIMONS      CLEAR     65  52  62 W3        29.87R
FT STEWART     MOCLDY    64  48  54 CALM      29.85R
ALBANY         PTCLDY    67  44  43 CALM      29.93R
BRUNSWICK      CLEAR     68  54  60 CALM      29.88R


CITY           SKY/WX    TMP DP  RH WIND       PRES   REMARKS
BAINBRIDGE*    CLEAR     66  46  48 NW6       29.93R
MOULTRIE*      CLEAR     68  45  42 CALM      29.92R
VIDALIA*       CLEAR     64  46  52 W3        29.87S
WAYCROSS*      CLEAR     62  48  60 CALM      29.89R
DOUGLAS*       MOCLDY    64  46  52 CALM      29.91R
$$



USA.gov is the U.S. government's official web portal to all federal, state and local government web resources and services.